Theta_e
314 314 315 315 315 316 316 319 325 327 328 329 330 328 332 331 331 329 327 322 321 322 322 319 317 318 319 321 320 319 320 320 319 318 319 319 320 321 321 322 322 323 323
314 314 314 315 315 315 315 318 318 321 324 326 325 327 327 330 330 328 328 324 322 321 321 318 318 318 319 320 321 319 320 320 320 319 318 317 319 321 322 321 323 325 323
310 311 312 313 314 315 315 315 316 317 321 324 326 327 328 328 329 329 327 325 322 322 321 319 317 318 318 319 319 319 318 319 319 319 317 314 315 318 320 321 322 321 322
310 311 311 311 313 315 316 317 315 315 319 322 324 325 326 326 327 326 326 326 325 324 323 320 317 314 315 316 318 318 317 317 318 318 317 314 312 318 319 319 320 319 322
308 311 312 312 313 314 316 317 317 317 319 321 324 324 325 326 325 326 326 326 325 325 324 322 319 315 313 313 315 316 317 316 317 316 317 315 308 313 317 318 319 320 320
305 307 310 312 313 314 317 318 318 318 319 321 324 324 324 325 327 325 326 325 324 324 325 324 321 317 312 312 312 313 314 313 314 314 314 314 310 308 310 314 318 318 318
302 303 307 311 312 315 317 320 321 321 320 318 321 324 325 323 322 323 324 326 324 323 324 324 324 319 314 311 311 311 312 312 312 311 312 312 312 309 307 306 309 316 317
297 300 303 307 310 313 317 320 322 323 323 320 321 323 324 324 324 323 322 323 324 325 324 324 324 324 321 312 311 310 310 311 310 310 311 312 311 310 308 307 307 310 314
294 296 300 303 306 311 315 318 319 324 325 322 323 323 324 323 323 323 323 322 322 322 323 324 324 323 320 315 311 310 309 311 311 310 310 311 311 310 308 309 308 307 307
292 294 297 299 302 305 310 314 318 321 321 322 321 322 323 324 324 323 324 324 324 324 324 324 323 322 320 313 311 310 310 310 311 311 311 311 310 310 308 309 308 308 308
289 291 294 296 299 302 306 310 315 317 319 319 321 321 323 323 322 323 323 324 324 324 324 324 322 321 321 314 311 310 310 310 311 311 311 310 310 310 309 308 308 308 308
287 289 291 293 296 299 302 307 311 315 318 319 319 318 317 317 317 317 320 321 323 323 322 322 323 320 317 317 312 311 309 310 310 310 310 310 310 310 311 310 309 309 309
286 287 290 291 293 296 298 301 304 310 314 317 317 315 315 316 315 317 317 319 319 320 320 319 320 320 315 313 316 310 309 308 309 309 309 309 309 310 310 311 310 310 310
284 285 286 288 290 292 295 297 300 302 305 311 315 317 317 316 316 316 315 316 316 316 317 317 317 317 316 316 313 310 309 309 309 310 310 310 310 309 310 310 310 310 310
283 284 284 286 288 290 292 294 297 300 302 306 310 314 315 315 316 316 317 315 315 314 314 315 314 315 314 313 312 312 312 311 311 311 311 311 311 310 310 310 310 310 310
282 283 283 284 286 287 288 291 295 297 298 303 303 307 313 315 316 315 316 316 314 314 315 315 313 313 312 311 310 310 311 311 312 311 311 311 311 310 311 311 311 310 310
281 282 282 283 284 285 286 288 291 293 298 301 300 303 307 309 311 313 315 315 316 314 314 315 314 313 313 312 311 310 312 313 313 312 311 311 311 310 310 310 310 310 310
280 281 282 282 284 284 286 288 290 292 294 297 297 301 302 302 307 311 313 313 314 314 314 315 315 314 314 313 314 314 314 313 313 314 314 313 313 312 313 313 312 311 311
280 280 281 281 283 284 284 286 288 290 291 292 293 297 297 300 303 306 306 308 310 312 313 313 313 314 314 312 313 313 313 314 314 314 315 315 315 315 314 313 312 312 312
279 280 280 281 282 283 284 285 286 287 289 290 290 291 294 296 300 302 304 305 307 308 310 310 310 310 311 311 311 312 313 312 313 313 313 313 312 312 313 313 313 310 311
279 280 280 280 281 283 283 284 284 285 286 287 290 291 293 295 295 297 298 301 304 306 306 308 308 308 309 309 309 309 309 309 310 311 311 311 311 311 311 311 310 310 309
278 279 280 280 280 282 283 283 284 284 285 286 287 289 291 292 293 294 295 297 299 300 302 303 304 305 306 307 307 307 308 308 309 309 309 309 309 309 309 308 308 309 308
277 278 279 279 280 280 281 283 283 283 285 285 286 287 288 290 292 294 295 295 296 297 299 301 302 303 303 304 305 306 307 308 308 308 308 308 308 308 308 308 307 307 305
277 277 278 279 279 280 280 282 282 282 283 284 285 285 286 288 290 291 292 294 294 295 296 298 299 300 301 302 303 303 304 305 306 306 307 307 307 307 307 306 306 306 303
276 277 277 278 278 279 279 280 282 283 283 283 284 284 285 285 287 288 290 291 291 291 292 293 294 297 300 300 301 301 302 303 304 304 305 306 306 306 305 304 304 303 301
276 277 277 277 278 278 279 280 281 282 282 283 284 284 284 285 285 286 287 288 289 291 293 293 294 295 295 297 299 300 300 300 301 302 302 304 304 304 304 303 302 300 299
Wind_Speed
33 29 27 25 27 30 30 33 34 32 30 30 31 28 35 33 29 30 26 28 27 26 25 25 26 27 28 30 27 29 31 30 27 26 23 20 18 20 19 18 21 22 17
18 21 26 30 30 29 32 34 35 34 34 33 32 32 33 34 28 26 29 31 30 27 26 28 28 27 29 30 31 33 34 33 33 28 26 18 19 20 21 20 20 27 26
14 12 19 23 35 36 35 34 34 34 33 31 33 35 31 31 31 30 31 31 32 29 27 27 32 33 32 34 33 35 34 37 35 29 21 12 11 25 22 26 24 25 24
10 11 11 17 32 38 41 41 35 34 33 32 35 37 38 39 35 30 31 31 32 31 29 27 31 34 35 36 37 36 36 37 37 35 34 17 11 21 20 26 30 28 26
12 12 11 10 19 34 38 40 39 36 34 34 35 35 38 37 35 34 34 35 32 32 30 29 30 33 35 36 37 39 40 38 37 38 37 32 16 25 22 32 31 30 31
14 13 10 8 8 16 31 35 38 37 35 34 35 34 34 38 38 36 36 35 35 34 33 31 31 33 34 36 37 39 40 39 38 37 38 38 30 26 24 21 37 37 33
18 16 13 10 5 8 18 29 32 36 34 30 32 33 32 34 36 37 37 38 39 40 38 36 34 36 35 36 37 39 41 40 38 36 37 36 36 30 24 22 24 38 34
20 19 15 13 9 6 10 16 23 32 30 29 31 30 29 30 30 31 33 39 43 42 42 41 39 39 37 38 38 38 40 40 37 36 36 36 35 32 27 25 21 27 36
22 19 17 14 12 9 8 15 19 27 27 28 27 27 29 29 31 33 34 34 35 38 40 43 42 43 43 41 40 40 40 41 38 36 34 35 35 33 28 24 22 19 21
20 20 19 16 14 12 9 8 15 23 24 24 24 25 29 31 34 32 35 40 40 39 42 42 44 45 46 43 42 41 41 39 38 36 35 35 36 35 32 29 26 24 22
20 20 19 18 16 13 13 12 12 17 19 23 20 20 23 21 23 31 36 35 38 41 46 42 39 48 49 46 42 41 41 39 38 36 35 34 34 35 35 33 32 28 26
19 19 19 19 19 17 15 13 10 11 15 18 18 18 15 16 11 8 16 25 30 40 45 46 39 43 50 47 45 42 41 40 39 36 34 34 33 34 33 32 35 31 28
22 20 20 22 21 20 19 17 12 10 11 18 18 17 12 8 8 8 9 14 20 24 32 37 40 40 45 46 40 40 41 39 37 35 34 33 33 33 32 34 32 30 29
25 24 22 22 21 20 19 18 16 14 14 15 18 15 15 11 8 9 6 9 12 14 22 26 29 31 32 35 35 35 36 38 36 35 33 33 33 32 34 34 32 31 31
26 26 27 24 22 20 18 16 14 13 16 16 17 15 14 13 14 11 8 9 10 10 11 17 25 27 28 29 29 28 30 34 36 34 32 32 31 31 32 32 34 33 32
25 27 28 26 24 22 20 18 16 13 12 13 16 14 15 12 14 18 14 13 8 8 8 15 19 21 21 21 27 26 24 27 29 32 32 31 30 31 31 32 30 29 31
26 27 27 26 23 22 19 17 15 13 12 11 12 13 16 15 13 14 21 17 16 12 8 8 16 24 21 24 27 31 30 32 34 34 32 33 32 30 31 31 30 30 29
25 24 25 24 21 20 19 16 16 15 13 11 10 9 10 13 13 13 12 13 17 14 17 13 11 9 12 14 15 13 23 25 26 24 27 29 28 29 30 28 29 28 28
21 20 20 21 20 19 20 18 16 14 13 15 14 10 8 6 10 11 12 13 13 13 11 11 9 14 21 20 19 21 21 21 23 23 18 16 20 21 21 21 18 21 25
19 20 18 20 20 20 19 19 19 18 17 15 15 13 10 9 7 4 5 7 8 9 11 7 5 5 5 7 9 11 11 13 14 14 13 14 14 15 20 23 23 25 28
18 17 18 20 21 20 21 22 20 21 18 15 13 12 12 10 8 4 2 3 4 3 4 5 4 4 5 7 7 8 9 12 13 13 14 14 15 16 16 17 18 19 20
18 17 18 20 21 21 21 22 24 21 17 15 14 12 11 10 9 7 5 4 4 5 5 5 5 6 8 9 9 11 11 11 11 12 13 13 14 14 15 16 15 15 16
17 17 18 18 20 20 21 21 23 21 17 16 15 13 12 10 8 7 9 8 5 1 2 3 4 3 5 8 9 8 11 12 13 13 12 11 11 12 14 13 13 14 16
18 17 16 17 19 20 20 18 19 19 17 16 15 15 14 12 9 8 7 6 6 5 2 1 3 4 4 4 7 10 9 9 10 10 11 11 12 12 12 13 14 14 16
17 17 16 16 16 17 18 18 16 16 17 16 15 16 16 15 12 10 8 6 5 5 7 6 5 6 7 7 7 9 11 10 10 12 13 13 14 14 14 14 15 14 17
16 15 14 14 15 16 17 16 16 16 16 16 16 17 18 16 15 12 8 7 8 8 8 9 10 9 11 12 12 11 10 11 11 12 14 16 16 15 15 14 15 15 16
Wind_Direction
235 243 238 231 226 225 218 215 217 219 220 215 218 221 213 211 214 217 216 217 216 217 222 217 205 200 196 196 201 194 199 193 192 176 175 175 186 196 197 200 201 203 201
227 227 230 230 225 219 219 218 220 220 220 220 218 223 225 220 218 232 221 218 217 218 223 218 212 210 205 204 207 205 199 206 200 192 180 176 188 192 198 202 200 203 221
233 223 226 225 220 220 218 217 220 220 221 216 213 219 219 225 219 214 218 216 218 222 222 223 219 218 217 218 215 214 212 205 204 200 188 166 201 192 197 199 209 216 218
136 152 168 202 213 221 221 221 219 220 222 221 214 216 217 221 222 229 218 221 218 224 228 229 224 222 221 221 220 220 221 216 210 204 208 208 206 185 192 202 210 213 217
91 106 120 152 202 215 218 221 222 222 223 222 219 218 218 225 230 227 228 234 223 230 234 233 231 226 224 224 223 221 221 222 221 217 214 219 219 202 195 195 199 201 211
72 81 90 129 154 192 207 213 220 223 224 226 223 223 221 221 226 231 226 220 220 230 230 237 234 232 228 225 224 225 225 225 225 225 223 221 218 213 213 208 207 208 211
53 57 64 66 114 159 186 201 212 222 223 227 228 226 225 226 228 229 228 230 227 233 234 234 235 232 231 230 227 227 227 227 227 225 226 228 228 237 235 229 222 214 217
44 46 49 55 73 115 178 186 201 219 219 224 227 226 228 230 234 235 236 239 236 236 241 235 235 238 237 234 229 230 230 229 228 229 228 230 229 235 241 240 231 218 222
31 35 45 49 59 83 168 181 183 193 207 217 227 228 230 234 236 240 242 241 241 244 247 242 239 239 235 233 230 229 230 230 230 230 229 229 229 231 234 236 240 239 228
28 36 42 48 54 67 98 167 170 189 207 211 223 230 234 236 242 247 247 247 247 249 249 246 240 238 236 230 230 230 231 232 232 233 231 229 227 228 232 237 241 244 246
21 27 38 44 52 60 83 105 160 189 201 217 215 211 227 227 232 238 238 240 244 248 246 243 233 232 235 228 227 231 232 233 235 235 235 232 231 227 230 236 242 244 245
20 23 33 40 49 55 71 82 123 154 186 203 184 189 194 207 226 209 223 235 239 240 237 237 232 233 232 233 222 227 230 232 235 236 237 235 232 230 231 234 239 240 241
19 22 31 35 39 45 53 65 80 125 156 175 188 182 179 180 202 217 231 247 241 244 242 234 234 234 230 232 222 223 234 235 236 238 239 238 234 232 231 233 235 238 241
20 21 27 29 34 39 45 47 67 76 101 157 175 181 193 185 159 174 174 193 214 231 240 236 238 237 234 232 225 219 232 238 240 241 242 241 240 239 236 237 240 242 243
15 17 18 23 27 32 37 43 50 67 71 102 114 142 203 186 184 190 206 221 228 239 232 237 234 231 229 221 213 218 230 239 242 243 244 243 244 244 245 246 246 246 246
12 19 21 21 24 27 28 34 42 52 66 85 90 105 134 188 195 209 208 216 224 222 240 242 223 211 207 204 211 212 223 234 241 243 242 242 241 240 241 244 246 247 253
16 22 21 18 20 21 23 32 41 44 55 75 72 89 107 114 144 188 202 213 215 210 210 233 225 218 211 223 215 209 219 235 239 239 237 240 239 242 241 237 236 239 239
17 21 16 11 18 22 26 27 38 45 50 61 65 74 86 91 110 133 173 176 201 211 221 223 212 208 207 220 228 231 231 237 238 244 243 242 244 246 248 243 242 244 248
17 20 19 15 20 24 30 34 39 48 52 56 56 69 51 77 93 107 108 120 139 162 170 185 205 198 215 222 229 221 224 236 230 240 247 239 243 239 243 243 240 249 246
17 16 19 23 26 29 32 36 41 43 45 45 48 47 53 58 66 79 84 105 120 125 139 144 151 177 190 196 195 200 212 229 232 242 241 240 242 242 242 241 237 243 243
17 16 23 23 24 29 32 33 36 40 37 35 37 41 44 59 57 55 181 132 159 167 163 184 218 266 264 260 256 257 257 249 248 250 250 255 257 256 252 246 239 241 238
18 21 25 22 22 27 32 32 35 32 37 39 37 39 45 52 59 49 48 99 161 189 195 202 218 245 260 259 261 261 257 252 250 249 251 252 252 247 243 238 234 225 230
14 19 22 17 19 23 23 27 28 28 33 34 33 36 38 36 42 48 51 43 46 90 100 142 188 221 239 249 258 262 261 254 252 251 249 241 239 240 239 235 236 236 226
10 13 16 14 14 16 16 23 20 20 24 31 31 36 33 26 28 29 25 30 39 27 4 246 236 247 252 244 245 250 251 258 255 258 253 250 252 253 249 242 239 232 226
9 12 11 12 11 7 10 13 18 14 17 23 23 31 27 26 30 24 13 3 355 341 336 329 301 269 251 261 250 249 250 254 254 253 248 247 249 247 239 235 242 234 230
3 8 9 10 7 4 1 8 15 17 14 11 10 19 17 18 17 18 28 357 338 314 290 288 290 279 257 254 251 246 251 254 254 251 248 246 244 244 241 242 245 240 237